Retour au catalogue

STARLINK-36799

ActifCommunicationsVLEO
NORAD 67958·PAYLOAD·🇺🇸 United States

Lancé Feb 24, 2026 depuis Vandenberg Space Force Base

Loading…

Prochains Passages (prochaines 24 heures)

TLE

FraisSource: CelesTrak SupGP

Époque: Sep 14, 2026, 21:17 UTC

1 67958C 26037AC  26257.88729167  .00014043  00000+0  50856-3 0  2578
2 67958  43.0000 202.1179 0001259 262.0593 225.3338 15.27577382    14

Suivez STARLINK-36799 en temps réel avec AllMySat

Download on the App Store